Regional Weather Roundup
Issued by NWS

Home | Current Version | Previous Version | Text Only | Print | Product List | Glossary On
Versions: 1 2 3 4 5 6 7 8 9 10 11 12 13 14 15 16 17 18 19 20 21 22 23 24 25 26 27 28 29 30 31 32 33 34 35 36 37 38 39 40 41 42 43 44 45 46 47 48 49 50
000
ASUS45 KPSR 250710
RWRAZ

ARIZONA REGIONAL HOURLY WEATHER ROUNDUP
NATIONAL WEATHER SERVICE TUCSON AZ
1200 AM MST THU MAY 25 2017

NOTE: FAIR INDICATES FEW OR NO CLOUDS BELOW 12,000 FEET WITH NO
SIGNIFICANT WEATHER AND/OR OBSTRUCTIONS TO VISIBILITY.

AZZ001>003-036-250800-
NORTHWEST ARIZONA

CITY           SKY/WX    TMP DP  RH WIND       PRES   REMARKS
BULLHEAD CITY  PTCLDY    93  25   8 S9        29.51S
KINGMAN        MOCLDY    77  18  11 SW15      29.70F
$$

AZZ004>008-015-016-018-250800-
NORTH CENTRAL ARIZONA

CITY           SKY/WX    TMP DP  RH WIND       PRES   REMARKS
GRAND CANYON   MOCLDY    61  15  16 S7        29.91S
WILLIAMS       MOSUNNY   64  12  13 SW16      29.94F
PRESCOTT       PTCLDY    68  18  14 SW9       29.86S
FLAGSTAFF      PTCLDY    64   5   9 SW12G25   29.96F
PAYSON         PTSUNNY   73  23  15 SW7       29.93R
PAGE           PTCLDY    77  26  15 SW6       29.65F
$$

AZZ009>014-017-250800-
NORTHEAST ARIZONA

CITY           SKY/WX    TMP DP  RH WIND       PRES   REMARKS
WINSLOW        CLEAR     62  24  23 S10       29.82F
SAINT JOHNS    CLOUDY    69  23  17 SW14      29.88F
WINDOW ROCK    CLEAR     63  24  22 SW12G20   29.91F
SHOW LOW       MOCLDY    64  21  19 SW18G24   29.97R
$$

AZZ023-250800-
GREATER PHOENIX AREA

CITY           SKY/WX    TMP DP  RH WIND       PRES   REMARKS
PHOENIX        MOCLDY    92  22   8 W9        29.61R
BUCKEYE        CLOUDY    81  32  17 S5        29.62S
LUKE AFB       MOCLDY    84  30  14 W9        29.61R
DEER VALLEY    MOCLDY    88  26  10 SW10      29.63R
SCOTTSDALE     MOCLDY    90  24   9 SW10G20   29.65R
MESA-GATEWAY   PTCLDY    86  30  13 SW6       29.65R
$$

AZZ027-028-250800-
SOUTHWEST MARICOPA COUNTY AND PINAL COUNTY

CITY           SKY/WX    TMP DP  RH WIND       PRES   REMARKS
CASA GRANDE    CLOUDY    87  25  10 S8        29.66S
$$

AZZ503-504-507>509-250800-
SOUTHEAST ARIZONA

CITY           SKY/WX    TMP DP  RH WIND       PRES   REMARKS
TUCSON         MOCLDY    84  22  10 S9        29.80S
DAVIS-MONTHAN  MOCLDY    81  22  11 S6        29.79S
NOGALES        MOCLDY    75  20  12 S9        29.90F
SIERRA VISTA   MOCLDY    76  15  10 SW7G16    29.94R
DOUGLAS        PTCLDY    73  20  13 E5        29.90R
SAFFORD        CLEAR     84  22  10 NW16G30   29.75R
$$

AZZ020-021-025-026-031-250800-
SOUTHWEST ARIZONA

CITY           SKY/WX    TMP DP  RH WIND       PRES   REMARKS
YUMA           MOCLDY    80  25  13 W5        29.58F
$$

CAZ031-033-041-043-047-048-061-250800-
SOUTHERN CALIFORNIA

CITY           SKY/WX    TMP DP  RH WIND       PRES   REMARKS
DOWNTOWN L.A.  CLOUDY    61  53  75 W3        29.86S
L.A. AIRPORT   CLOUDY    59  53  80 SW6       29.86R
SAN DIEGO      CLOUDY    61  52  72 S7        29.89S
BURBANK        CLOUDY    58  51  78 S5        29.85R
ONTARIO        CLOUDY    58  52  80 W8        29.86R
RIVERSIDE      CLOUDY    58  54  86 VRB5      29.86S
PALM SPRINGS   CLEAR     79  34  19 CALM      29.60S
EL CENTRO NAS  LGT RAIN  83  24  11 W29       29.62S
IMPERIAL       LGT RAIN  83  31  15 W22       29.58S
BLYTHE         CLEAR     87  27  11 S8        29.55S
NEEDLES        CLEAR     88  10   5 S6        29.54R
$$

NVZ020-UTZ003-250800-
SOUTHERN NEVADA-UTAH

CITY           SKY/WX    TMP DP  RH WIND       PRES   REMARKS
LAS VEGAS      PTCLDY    85  30  13 SW14G24   29.53F
SALT LAKE CITY MOCLDY    64  46  52 NW13      29.56S
$$

NMZ009-TXZ055-250800-
NEW MEXICO-WEST TEXAS

CITY           SKY/WX    TMP DP  RH WIND       PRES   REMARKS
ALBUQUERQUE    PTCLDY    74  19  12 W18       29.81S
EL PASO        CLEAR     85  12   6 W7        29.78R
$$


........................KEY........................
SKY/WX - SKY CONDITION/WEATHER
TMP    - TEMPERATURE IN FAHRENHEIT
DP     - DEWPOINT IN FAHRENHEIT
RH     - RELATIVE HUMIDITY IN PERCENT
WIND   - DIRECTION AND SPEED IN MILES PER HOUR (MPH)
VRB    - VARIABLE WIND DIRECTION
PRES   - MEAN SEA LEVEL PRESSURE IN INCHES OF MERCURY
         F - FALLING PRESSURE   R - RISING PRESSURE
         S - STEADY PRESSURE
VSB    - VISIBILITY IN MILES
HX     - HEAT INDEX IN FAHRENHEIT
WCI    - WIND CHILL INDEX IN FAHRENHEIT
TC     - TEMPERATURE IN CELSIUS WHICH IS ALSO KNOWN AS
         TEMPERATURE IN CENTIGRADE
AFB    - AIR FORCE BASE
         LUKE AFB IS LUKE AIR FORCE BASE
         DAVIS-MONTHAN IS DAVIS-MONTHAN AIR FORCE BASE
NAS    - NAVAL AIR STATION
         EL CENTRO NAS IS EL CENTRO NAVAL AIR STATION
N/A    - NOT AVAILABLE





USA.gov is the U.S. government's official web portal to all federal, state and local government web resources and services.